Location: Aulnoy
(48.8410°N, 3.0967°E)
Time: 21:56:24
(UTC+00:00)

USA 215 - Pass Details

Date: 09 February 2023
Orbit: 1102 x 1105 km, 123.0° (Epoch: 27 March)

Event Time Altitude Azimuth Distance (km) Brightness Sun altitude
Exits shadow 19:09:52 - 155° (SSE) 3,154 5.4 -22.1°
Reaches altitude 10° 19:10:26 10° 157° (SSE) 2,952 5.3 -22.2°
Maximum altitude 19:16:33 42° 227° (SW) 1,526 4.3 -23.2°
Drops below altitude 10° 19:22:42 10° 297° (WNW) 2,966 6.4 -24.2°
Sets 19:25:22 0° 304° (NW) 3,927 7.1 -24.6°
